Location: Buchdorf
(48.7842°N, 10.8275°E)
Time: 11:01:19
(UTC+00:00)

Cosmos 2173 Rocket - Pass Details

Date: 09 April 2020
Orbit: 945 x 1000 km, 83.0° (Epoch: 24 May)

Event Time Altitude Azimuth Distance (km) Brightness Sun altitude
Rises 22:18:30 0° 352° (N) 3,628 8.1 -31.7°
Reaches altitude 10° 22:21:02 10° 355° (N) 2,681 7.1 -31.8°
Enters shadow 22:26:17 61° 34° (NE) 1,080 4.2 -32.1°
